CZ-6A DEB

Satellite information

Favourite Embed

Satellite Type and Status

DEBRISIN ORBIT

Key statistics

Satellite CZ-6A DEB at a glance.

Uptime

495

Days in orbit

Revolutions

≈ 14.2

Per day

Orbit

LEO

Low Earth Orbit

Inclination

89.0

Latest

Satellite identification and parameters

Extended collection of information and parameters for CZ-6A DEB.

Object identification

Identified? True

Debris? True

Object name: CZ-6A DEB

International designator: 2024-140JS

Object number (NORAD): 60863

Object ID (CCSDS): 60863

Country: PEOPLES REPUBLIC OF CHINA (PRC)

Current information (Y/N): Y

RCS size: SMALL

Orbital parameters

Period: 101.129 minutes

Inclination: 89.0021 deg

SMA: 7190.263 km

Apoapsis: 832.897 km

Periapsis: 791.359 km

RAAN: 295.6032 deg

Eccentricy: 0.0028885

Argument of periapsis: 87.4002 deg

Mean anomaly: 273.0496 deg

Mean motion: 14.23920098 rev/day

Mean motion (dot): 0.00000828 rev/day2

B* drag term: 0.00035345702 1/REarth

Two-line elements (TLE)

Creation date: Dec. 11, 2025, 7:14 p.m.

Reference frame: TEME

Reference center: EARTH

Epoch: Dec. 11, 2025, 3:04 p.m. UTC

TLE line 0: 0 CZ-6A DEB

TLE line 1: 1 60863U 24140JS 25345.62795495 .00000828 00000-0 35346-3 0 9992

TLE line 2: 2 60863 89.0021 295.6032 0028885 87.4002 273.0496 14.23920098 68760

Live tracking on map

Real-time ground track for satellite CZ-6A DEB.

In-orbit conjunctions

A list of the most updated potential collisions computed for object CZ-6A DEB.

Target Orbit TCA Probability of collision Miss distance Type
CZ-6A DEB SSO 2025-04-26 10:59:01 0.0001015904 216.0 (m) DEBRIS
COSMOS 1275 DEB LEO 2025-02-24 11:45:25 0.0001020407 371.0 (m) DEBRIS
FENGYUN 1C DEB SSO 2025-02-12 00:52:17 0.001741366 175.0 (m) DEBRIS
COSMOS 1275 DEB LEO 2025-02-03 08:49:14 0.0002378872 376.0 (m) DEBRIS
FENGYUN 1C DEB SSO 2025-01-15 00:54:16 0.000175905 119.0 (m) DEBRIS

Associated space launch

18 Low Earth Orbit communication satellites with Ku, Q and V band payloads for the G60 constellation operated by Shanghai Spacecom Satellite Technology (SSST) with funding backed by the Shanghai local government. Initial constellation will consist of 1296 satellites by 2027 with long term plans to expand it to 12000 satellites.

CZ-6A DEB was lifted into orbit during the mission ‘Long March 6A | G60 Polar Group 01’, on board a Long March 6A space rocket.

The launch took place on Aug. 6, 2024, 6:42 a.m. from Launch Complex 9A.

For more information about the launch, click the button.

Launch to space Long March 6A | G60 Polar Group 01
Long March 6A | G60 Polar Group 01

Agency: N/A

Status: Launch Successful

Launch date: Aug. 6, 2024, 6:42 a.m. UTC

Rocket: Long March 6A

Launch pad: Launch Complex 9A

Location: Taiyuan Satellite Launch Center, People's Republic of China

...

Latest news about this satellite

News about space launch
Brightness of first Chinese broadband constellation satellites alarms astronomers

The first satellites of a Chinese broadband constellation are significantly brighter than those of Western systems, posing a new challenge for astronomers.

News about space launch
Chinese rocket stage breaks up into cloud of more than 700 pieces of space debris

HELSINKI — A Chinese Long March 6A rocket’s upper stage has fragmented into a cloud of over 700 pieces of space debris, adding to concerns about long-term orbital safety. China […]

News about space launch
China's Thousand Sails Megaconstellation Kicks Off with Dangerous Debris Field

China's Thousand Sails Megaconstellation Kicks Off with Dangerous Debris Field


Newsletter sign-up

Weekly statistics, charts and insights to help you stay on top of the space industry.